STARLINK-1265, 45406

Orbit data source: Space-Track

STARLINK-1265, 45406 is a payload satellite owned by SpaceX/Seattle (US) in LEO that was launched on Wed, 18 Mar 2020 UTC via an FALCON 9 launch vehicle from the Air Force Eastern Test Range (AFETR). Payload-class satellites include a variety of spacecraft equipped with specific instruments for various scientific and technological missions. These include communications satellites like Starlink; space stations such as the ISS; scientific satellites like the Hubble; Earth observation satellites from companies like Planet Labs, Umbra, and HawkEye 360; GPS; miniature CubeSats for education and research; and military/defense satellites.

Loading next visibility...
Identifier
45406, 2020-019AY
Orbit
LEO
Country
Flag of USUS
Related business
Manufacturer
SpaceX/Seattle
Mission
Operational Commercial Communications
Bus & Motor
STARLINK, Unknown motor
Mass
260 kg wet, ~248 kg dry
Launch date (UTC)
2020-03-18 (6 years ago)
Launch vehicle
FALCON 9
Launch site
Air Force Eastern Test Range (AFETR)
Object type
Payload
Rocket body
Debris
Shape & HBR
Box + 1 Pan, 10.1 m
Radar Cross Section
13.562 m², Large (>1 m²)

Expand to show TLE details & history
Last TLE update: 20 hours ago

TLE from 20 hours ago
0 STARLINK-1265
1 45406U 20019AY  25347.65761878 -.00000778  00000-0 -33385-4 0  9990
2 45406  53.0539 162.8336 0001216  77.4751 282.6374 15.06390576316897
Epoch: 2025-12-13T15:46Z
TLE epoch observation values (Epoch: 2025-12-13T15:46:58.262Z)
Latitude
-0.00002°
Longitude
-156.49091°
Altitude
547.935 km
Speed
7.589 km/s
True Right ascension
10h 51m 20s
True Declination
0° 00' 00"
Sunlit
Object was in daylight at epoch
Visualization orbit readout
Latitude
Unknown
Longitude
Unknown
Altitude
Unknown
Speed
Unknown
Apparent Right ascension
Unknown
Apparent Declination
Unknown
Sunlit
N/A
Visualization observer readout
Local Sidereal Time
10:15:26
Azimuth
Unknown
Elevation
Unknown
Doppler factor
Unknown
Orbital elements
Apogee altitude
548.353 km
Perigee altitude
546.669 km
Semi-major axis
6,925.648 km
Eccentricity
0.00012
Inclination
53.0539°
RAAN
162.8336°
Arg. of periapsis
77.4751°
True anomaly
282.6238°
Mean anomaly
282.6374°
Eccentric anomaly
282.6306°
Mean motion
3.76576 °/min
Orbital period
95.6 mins
BSTAR
-0.000033385
Loading maneuver chart data...
Computing Atmospheric mass density...
Loading historical data...
Loading historical data...
Loading historical data...
Loading historical data...
Loading historical data...
Loading historical data...
Loading historical data...

Documentation

Showing up to 5 results
|